Flag for Germany Weather past 2 weeks in Magdeburg, Saxony-Anhalt, Germany

Now
54 °F

Partly sunny.


Feels Like: 54 °F
Forecast: 34 / 55 °F
Wind: 2 mph from Northwest

Location: Magdeburg

Current Time: Apr 18, 2015 at 3:40:35 PM

Latest Report: Apr 18, 2015 at 3:00 PM


Visibility: 37 mi

Pressure: 30.29 "Hg

Humidity: 41%

Dew point: 31 °F

Location of MagdeburgLocation

Historic Weather in Magdeburg — Graph

°F

Magdeburg temperature yesterday

Maximum temperature yesterday: 53 °F (at 3:00 PM)
Minimum temperature yesterday: 39 °F (at 6:00 AM)
Average temperature yesterday: 46 °F

Past Weeks' High & Low Weather Summary

 TemperatureHumidityPressure
High74 °F (Apr 15, 4:00 PM)95% (Apr 10, 7:00 AM)30.59 "Hg (Apr 10, 7:00 AM)
Low29 °F (Apr 6, 7:00 AM)23% (Apr 12, 4:00 PM)29.87 "Hg (Apr 15, 7:00 PM)
Average48 °F65%30.22 "Hg
* Reported Apr 3 2:00 PM — Apr 18 2:00 PM, Magdeburg, Weather by CustomWeather, © 2015

Note: Actual official high and low records may vary slightly from our data, if they occured in-between our weather recording intervals... More about our weather records

Advertising

Magdeburg weather history for previous 24 hours

 ConditionsComfort  
Time TempWeatherWind HumidityBarometerVisibility
2:00 PM
Sat, Apr 18
51 °FPartly sunny.3 mph41%30.30 "Hg37 mi
1:00 PM50 °FPartly sunny.2 mph47%30.32 "Hg37 mi
12:00 PM47 °FPartly sunny.3 mph50%30.32 "Hg37 mi
10:00 AM44 °FPassing clouds.2 mph61%30.32 "Hg31 mi
9:00 AM42 °FSunny.1 mph76%30.31 "Hg28 mi
8:00 AM37 °FSunny.1 mph86%30.30 "Hg28 mi
7:00 AM32 °FSunny.1 mph95%30.28 "Hg25 mi
6:00 AM33 °FClear.2 mph92%30.26 "Hg28 mi
4:00 AM36 °FPassing clouds.2 mph84%30.23 "Hg31 mi
3:00 AM37 °FClear.2 mph82%30.22 "Hg37 mi
2:00 AM39 °FClear.2 mph77%30.20 "Hg43 mi
1:00 AM40 °FPassing clouds.2 mph73%30.17 "Hg43 mi
12:00 AM41 °FPassing clouds.2 mph68%30.15 "Hg43 mi
11:00 PM
Fri, Apr 17
42 °FPassing clouds.2 mph65%30.13 "Hg43 mi
10:00 PM45 °FClear.3 mph58%30.11 "Hg43 mi
9:00 PM45 °FPassing clouds.1 mph57%30.08 "Hg37 mi
8:00 PM50 °FPassing clouds.3 mph42%30.05 "Hg37 mi
7:00 PM52 °FPartly sunny.2 mph43%30.03 "Hg37 mi
6:00 PM53 °FPartly sunny.3 mph41%30.02 "Hg37 mi
4:00 PM52 °FOvercast.5 mph43%30.01 "Hg37 mi
3:00 PM53 °FPartly sunny.3 mph51%30.01 "Hg37 mi
Weather by CustomWeather, © 2015

See weather overviewHow to use our weather pages